[[{"header":{"parameterUnit":"m.s-1","parameterCategory":1,"la1":30.2991,"la2":30.254,"lo1":-89.0895,"lo2":-89.0444,"dy":0.0017,"dx":0.0017,"nx":28,"ny":28,"refTime":"2025-09-06T21:00:00:Z","depth":0,"parameterNumber":2,"parameterNumberName":"U-component_of_WINDS"},"data":[0,0,0,0,0,0,0,0,0,0,0,0,0,0,0,0,0,0,0,0,0,0,0,0,0,0,0,0,0,0,0,0,0,0,0,0,0,0,0,0,0,0,0,0,0,0,0,0,0,0,0,0,0,0,0,0,0,0,-1.9075,-1.9075,0,-1.9083,-1.9083,-1.9083,-1.9015,-1.9013,-1.9011,-1.9009,-1.9019,-1.9021,-1.9023,0,0,0,0,0,0,0,0,0,0,0,0,0,-1.9002,-1.9003,-1.9075,-1.9075,-1.9076,-1.9083,-1.9083,-1.9083,-1.9015,-1.9013,-1.9011,-1.9008,-1.9019,-1.9021,-1.9023,0,0,0,0,0,0,0,0,0,0,0,0,0,-1.9024,-1.9004,-1.9075,-1.9042,-1.9039,-1.9083,-1.9083,-1.9083,-1.9016,-1.9013,-1.901,-1.9007,-1.9018,-1.9021,-1.9024,-1.91,0,0,-1.9033,-1.9034,0,0,0,0,0,0,0,0,-1.9023,-1.9027,-1.9047,-1.9045,-1.9042,-1.9045,-1.9061,-1.9089,-1.9016,-1.9025,-1.9009,-1.9006,-1.903,-1.9032,-1.904,-1.9101,-1.9101,-1.9033,-1.9035,-1.9037,-1.9037,0,0,0,0,0,0,0,-1.9022,-1.9026,-1.9078,-1.9048,-1.9044,-1.9027,-1.9027,-1.9066,-1.9044,-1.9024,-1.9019,-1.9021,-1.9028,-1.9037,-1.904,-1.9101,-1.9033,-1.9036,-1.9038,-1.9039,-1.9224,-1.9226,0,0,0,0,0,0,-1.9024,-1.9025,-1.9078,-1.9079,-1.9025,-1.9031,-1.9031,-1.9047,-1.9043,-1.904,-1.9023,-1.9017,-1.9033,-1.9036,-1.904,-1.9129,-1.9037,-1.9039,-1.9041,-1.9221,-1.9224,-1.9228,0,0,0,0,0,0,-1.9023,-1.903,-1.9078,-1.9051,-1.9056,-1.9035,-1.9054,-1.9049,-1.9057,-1.9042,-1.9038,-1.9036,-1.9031,-1.9035,-1.9085,-1.9128,-1.9041,-1.9044,-1.9217,-1.9222,-1.9226,-1.9307,0,0,0,0,0,0,-1.9021,-1.903,-1.9058,-1.9052,-1.9057,-1.9124,-1.9056,-1.9051,-1.9063,-1.9055,-1.9054,-1.9051,-1.9029,-1.9081,-1.9088,-1.9131,-1.9046,-1.9213,-1.9219,-1.9224,-1.9301,-1.9314,-1.9325,0,0,0,0,0,-1.9019,-1.9082,-1.906,-1.9067,-1.9093,-1.9126,-1.9129,-1.9103,-1.9066,-1.9095,-1.9085,-1.9051,-1.9122,-1.9087,-1.9094,-1.9138,-1.921,-1.9217,-1.9224,-1.9295,-1.9311,-1.9325,0,0,0,0,0,0,-1.9095,-1.908,-1.9056,-1.9119,-1.9124,-1.9114,-1.915,-1.9121,-1.9137,-1.913,-1.9097,-1.9097,-1.9152,-1.915,-1.9111,-1.9211,-1.916,-1.9168,-1.9211,-1.9227,-1.9239,-1.9239,-1.9049,0,0,0,0,0,-1.9119,-1.9147,-1.9132,-1.9189,-1.9193,-1.9171,-1.9185,-1.9163,-1.9168,-1.917,-1.9164,-1.917,-1.9193,-1.9209,-1.923,-1.9299,-1.9298,-1.9333,-1.9346,-1.9356,-1.9364,-1.94,-1.9416,-1.925,-1.925,-1.925,0,0,-1.9169,-1.9165,-1.9184,-1.9204,-1.9206,-1.9236,-1.9174,-1.9208,-1.923,-1.9175,-1.9222,-1.9217,-1.9221,-1.9281,-1.9307,-1.9281,-1.9409,-1.9365,-1.9373,-1.9376,-1.9409,-1.9425,-1.9439,-1.9255,-1.9254,-1.9253,0,0,-1.9276,-1.9275,-1.9322,-1.9324,-1.9327,-1.9312,-1.9323,-1.9317,-1.9312,-1.9357,-1.9317,-1.9342,-1.9384,-1.9388,-1.9396,-1.9502,-1.9471,-1.951,-1.9575,-1.9611,-1.9624,-1.9635,-1.9673,-1.9688,-1.9518,-1.9518,-1.9518,0,-1.9339,-1.9382,-1.935,-1.9387,-1.9397,-1.9347,-1.9394,-1.9398,-1.9408,-1.9416,-1.9386,-1.9436,-1.9435,-1.9495,-1.9521,-1.9529,-1.954,-1.9511,-1.9624,-1.9635,-1.9646,-1.9682,-1.9696,-1.9523,-1.9522,-1.9522,-1.9521,0,-1.9458,-1.9488,-1.9526,-1.9535,-1.9549,-1.9591,-1.9566,-1.9583,-1.956,-1.9549,-1.9595,-1.9592,-1.9612,-1.9624,-1.9602,-1.9681,-1.9664,-1.963,-1.9578,-1.9667,-1.97,-1.9714,-1.953,-1.9528,-1.9526,-1.9525,0,0,-1.9616,-1.9606,-1.962,-1.9623,-1.9621,-1.9644,-1.9683,-1.9701,-1.9717,-1.9724,-1.9757,-1.9792,-1.9759,-1.9768,-1.9746,-1.9777,-1.9862,-1.9739,-1.9738,-1.9762,-1.9948,-1.9974,-1.9991,-1.984,-1.9843,-1.9845,-1.9947,0,-1.9721,-1.9787,-1.9758,-1.9827,-1.9854,-1.9807,-1.984,-1.9843,-1.9832,-1.9854,-1.9842,-1.9868,-1.9823,-1.9828,-1.9856,-1.9846,-1.9899,-1.9837,-1.9871,-1.9872,-1.9872,-2.0008,-2.0037,-2.0134,-1.996,-1.9962,-1.9964,0,-1.9852,-1.9864,-1.9935,-1.9927,-1.9937,-1.9969,-1.9982,-2.0003,-2.0004,-1.9994,-2.0003,-1.9974,-2.0012,-1.9958,-2.001,-1.9969,-1.998,-1.9977,-1.998,-1.9983,-1.9925,-2.0016,-2.0165,-2.018,-1.9984,-1.9983,-1.9981,0,-1.9961,-1.9994,-2.0041,-2.0045,-2.0037,-2.006,-2.0057,-2.0056,-2.0068,-2.0079,-2.0087,-2.0103,-2.0112,-2.0125,-2.0101,-2.0064,-2.0156,-2.0101,-2.0149,-2.015,-2.0172,-2.0171,-2.0326,-2.0178,-2.0178,-2.0177,-2.0177,0,-2.0081,-2.0127,-2.009,-2.0119,-2.0168,-2.0135,-2.0185,-2.0177,-2.0176,-2.0202,-2.0162,-2.0188,-2.0154,-2.0176,-2.0157,-2.0203,-2.0207,-2.0201,-2.0195,-2.0205,-2.0206,-2.0213,-2.0206,-2.0181,-2.018,-2.018,-2.0179,0,-2.0212,-2.0189,-2.0236,-2.0224,-2.0221,-2.0259,-2.0248,-2.0274,-2.0259,-2.0294,-2.03,-2.0277,-2.0302,-2.0278,-2.0302,-2.0289,-2.035,-2.0334,-2.035,-2.0346,-2.0396,-2.0392,-2.0561,-2.0582,-2.042,-2.0422,-2.0423,0,-2.0291,-2.0325,-2.0315,-2.033,-2.0329,-2.0353,-2.0365,-2.0332,-2.0346,-2.0349,-2.0375,-2.0396,-2.0411,-2.0452,-2.0438,-2.0456,-2.0441,-2.0499,-2.0443,-2.0452,-2.0443,-2.0441,-2.0444,-2.0511,-2.0513,-2.0514,-2.0516,0,-2.0435,-2.0421,-2.0438,-2.0452,-2.0466,-2.0475,-2.0481,-2.0496,-2.0462,-2.048,-2.0503,-2.0515,-2.0538,-2.0559,-2.0572,-2.0569,-2.0538,-2.0533,-2.0545,-2.0556,-2.0564,-2.0561,-2.0382,-2.053,-2.0528,-2.0527,-2.0526,-2.0526,-2.0542,-2.057,-2.0567,-2.0587,-2.0588,-2.0594,-2.0618,-2.0605,-2.0624,-2.064,-2.0619,-2.0649,-2.0648,-2.0662,-2.0663,-2.0686,-2.0662,-2.0679,-2.0684,-2.0689,-2.0697,-2.0559,-2.0688,-2.0688,-2.0687,-2.0687,-2.0687,0,-2.0684,-2.0679,-2.0698,-2.0707,-2.0723,-2.0689,-2.0694,-2.071,-2.0736,-2.0738,-2.0752,-2.078,-2.0799,-2.0786,-2.0803,-2.0824,-2.0809,-2.0829,-2.0828,-2.0828,-2.0717,-2.0705,-2.084,-2.084,-2.084,-2.084,-2.084,-2.084,-2.076,-2.0804,-2.079,-2.0834,-2.0828,-2.0856,-2.0861,-2.0867,-2.0868,-2.0899,-2.0915,-2.0906,-2.0901,-2.0917,-2.0934,-2.0929,-2.0938,-2.0963,-2.0954,-2.0851,-2.0836,-2.0822,-2.081,-2.0965,-2.0965,-2.1062,-2.1063,-2.1064]},{"header":{"parameterUnit":"m.s-1","parameterCategory":1,"la1":30.2991,"la2":30.254,"lo1":-89.0895,"lo2":-89.0444,"dy":0.0017,"dx":0.0017,"nx":28,"ny":28,"refTime":"2025-09-06T21:00:00:Z","depth":0,"parameterNumber":3,"parameterNumberName":"V-component_of_WINDS"},"data":[0,0,0,0,0,0,0,0,0,0,0,0,0,0,0,0,0,0,0,0,0,0,0,0,0,0,0,0,0,0,0,0,0,0,0,0,0,0,0,0,0,0,0,0,0,0,0,0,0,0,0,0,0,0,0,0,0,0,-6.4384,-6.4385,0,-6.4464,-6.4465,-6.4466,-6.4373,-6.4369,-6.4366,-6.4362,-6.4439,-6.4444,-6.4449,0,0,0,0,0,0,0,0,0,0,0,0,0,-6.4144,-6.4149,-6.4384,-6.4385,-6.4386,-6.4464,-6.4465,-6.4466,-6.4373,-6.4369,-6.4365,-6.4361,-6.4437,-6.4444,-6.445,0,0,0,0,0,0,0,0,0,0,0,0,0,-6.4238,-6.415,-6.4384,-6.4349,-6.4347,-6.4464,-6.4465,-6.4466,-6.4374,-6.4369,-6.4364,-6.4359,-6.4435,-6.4443,-6.4451,-6.4604,0,0,-6.4475,-6.4478,0,0,0,0,0,0,0,0,-6.4233,-6.4247,-6.4353,-6.4352,-6.4349,-6.4403,-6.4408,-6.4512,-6.4375,-6.4364,-6.4362,-6.4356,-6.4431,-6.4439,-6.4465,-6.4608,-6.4611,-6.4476,-6.4481,-6.4484,-6.4486,0,0,0,0,0,0,0,-6.4227,-6.4243,-6.4415,-6.4355,-6.4352,-6.4327,-6.4335,-6.4428,-6.4425,-6.4364,-6.4358,-6.4369,-6.4429,-6.4458,-6.4466,-6.4612,-6.4475,-6.4483,-6.4487,-6.4491,-6.4883,-6.4888,0,0,0,0,0,0,-6.4225,-6.4238,-6.4413,-6.4418,-6.4277,-6.4336,-6.4345,-6.4391,-6.4424,-6.4424,-6.4373,-6.4364,-6.4447,-6.4457,-6.4469,-6.465,-6.4484,-6.4491,-6.4496,-6.4877,-6.4884,-6.489,0,0,0,0,0,0,-6.422,-6.4241,-6.441,-6.4326,-6.4346,-6.4346,-6.4399,-6.4395,-6.4424,-6.4431,-6.4429,-6.4404,-6.4443,-6.4458,-6.4571,-6.4651,-6.4495,-6.4502,-6.487,-6.4879,-6.4887,-6.5013,0,0,0,0,0,0,-6.4214,-6.424,-6.43,-6.4329,-6.4351,-6.4513,-6.4404,-6.4401,-6.4439,-6.4428,-6.4459,-6.4459,-6.444,-6.456,-6.4579,-6.4659,-6.4508,-6.4863,-6.4874,-6.4884,-6.5002,-6.5025,-6.5045,0,0,0,0,0,-6.4205,-6.4331,-6.4304,-6.4325,-6.4426,-6.4518,-6.453,-6.4507,-6.4446,-6.4505,-6.4509,-6.4458,-6.4639,-6.4572,-6.4593,-6.4677,-6.4858,-6.4871,-6.4883,-6.4992,-6.502,-6.5044,0,0,0,0,0,0,-6.431,-6.4334,-6.4304,-6.4443,-6.448,-6.4502,-6.4576,-6.4538,-6.4591,-6.4578,-6.4546,-6.4554,-6.4675,-6.4687,-6.4612,-6.4826,-6.4738,-6.4756,-6.4814,-6.4841,-6.4862,-6.4856,-6.4515,0,0,0,0,0,-6.435,-6.4425,-6.4441,-6.4562,-6.4582,-6.4576,-6.4615,-6.4595,-6.463,-6.4644,-6.4657,-6.4691,-6.4755,-6.4799,-6.4858,-6.5003,-6.5008,-6.5071,-6.5092,-6.511,-6.5125,-6.5201,-6.5229,-6.4932,-6.4932,-6.4931,0,0,-6.4432,-6.4454,-6.4503,-6.4584,-6.461,-6.4686,-6.459,-6.4674,-6.473,-6.4656,-6.4765,-6.4775,-6.4811,-6.4941,-6.4999,-6.4955,-6.5208,-6.5126,-6.514,-6.5146,-6.5217,-6.5245,-6.527,-6.494,-6.4939,-6.4937,0,0,-6.4621,-6.4646,-6.475,-6.4777,-6.4818,-6.4813,-6.4838,-6.4867,-6.4871,-6.498,-6.4926,-6.4991,-6.5103,-6.5131,-6.5159,-6.5358,-6.5313,-6.5378,-6.549,-6.5565,-6.5588,-6.5609,-6.5679,-6.5704,-6.5394,-6.5394,-6.5394,0,-6.4717,-6.4832,-6.4807,-6.4896,-6.4932,-6.4871,-6.4974,-6.5002,-6.5059,-6.5085,-6.5035,-6.5174,-6.5194,-6.5329,-6.5378,-6.5404,-6.543,-6.5375,-6.5587,-6.5608,-6.5626,-6.5693,-6.5719,-6.5402,-6.5401,-6.54,-6.5399,0,-6.4948,-6.5028,-6.5106,-6.5166,-6.521,-6.5306,-6.5294,-6.5342,-6.5317,-6.5317,-6.5428,-6.545,-6.5512,-6.5543,-6.5519,-6.5674,-6.5646,-6.5593,-6.5503,-6.5663,-6.5725,-6.575,-6.5413,-6.541,-6.5408,-6.5406,0,0,-6.5205,-6.5249,-6.5278,-6.5304,-6.5344,-6.5405,-6.5496,-6.556,-6.5601,-6.5642,-6.5718,-6.5814,-6.5765,-6.5798,-6.5776,-6.5842,-6.5997,-6.578,-6.578,-6.5819,-6.6168,-6.6208,-6.6238,-6.5967,-6.5972,-6.5976,-6.6165,0,-6.5393,-6.5555,-6.5535,-6.569,-6.5762,-6.5705,-6.5785,-6.5817,-6.5819,-6.588,-6.588,-6.5949,-6.588,-6.5899,-6.5962,-6.5965,-6.6066,-6.5951,-6.6035,-6.6039,-6.6028,-6.627,-6.6312,-6.649,-6.6189,-6.6193,-6.6196,0,-6.5635,-6.5687,-6.585,-6.5878,-6.5908,-6.5981,-6.6036,-6.6095,-6.613,-6.6126,-6.6164,-6.613,-6.622,-6.613,-6.6253,-6.6175,-6.6208,-6.6214,-6.622,-6.6227,-6.6127,-6.6282,-6.6546,-6.6572,-6.6234,-6.6231,-6.6228,0,-6.5806,-6.5916,-6.6027,-6.6051,-6.6087,-6.6139,-6.6156,-6.6186,-6.6225,-6.6273,-6.6298,-6.6355,-6.6386,-6.6431,-6.6413,-6.6349,-6.6538,-6.6447,-6.6537,-6.6537,-6.6579,-6.6576,-6.6851,-6.6602,-6.6601,-6.6601,-6.66,0,-6.6018,-6.6119,-6.6104,-6.6173,-6.6284,-6.6259,-6.6368,-6.6378,-6.6405,-6.6472,-6.6425,-6.6489,-6.6462,-6.6524,-6.651,-6.6613,-6.6627,-6.6626,-6.6621,-6.663,-6.663,-6.6651,-6.6638,-6.6608,-6.6606,-6.6605,-6.6603,0,-6.6227,-6.6221,-6.6339,-6.6364,-6.6372,-6.6453,-6.6473,-6.6536,-6.6534,-6.662,-6.6639,-6.6636,-6.6706,-6.6693,-6.677,-6.676,-6.6889,-6.6869,-6.6878,-6.6873,-6.6964,-6.6955,-6.726,-6.7298,-6.7025,-6.7028,-6.703,0,-6.6363,-6.644,-6.6474,-6.6517,-6.6538,-6.6608,-6.6648,-6.6625,-6.6669,-6.6714,-6.6771,-6.6837,-6.6889,-6.7003,-6.7006,-6.7064,-6.7045,-6.7148,-6.7053,-6.706,-6.7045,-6.7041,-6.7048,-6.7166,-6.7169,-6.7172,-6.7174,0,-6.6605,-6.6598,-6.6659,-6.6719,-6.6768,-6.6814,-6.6854,-6.6892,-6.6873,-6.6923,-6.6995,-6.7036,-6.7115,-6.718,-6.7234,-6.7249,-6.7209,-6.7204,-6.7228,-6.7237,-6.7239,-6.7239,-6.6929,-6.7197,-6.7195,-6.7193,-6.7192,-6.7191,-6.678,-6.6846,-6.688,-6.6949,-6.6978,-6.7017,-6.7077,-6.7084,-6.7144,-6.7208,-6.7191,-6.7272,-6.7303,-6.7372,-6.7393,-6.7455,-6.7416,-6.7451,-6.7459,-6.7468,-6.7479,-6.723,-6.7465,-6.7464,-6.7463,-6.7463,-6.7462,0,-6.7019,-6.7038,-6.7102,-6.7161,-6.7215,-6.7174,-6.7217,-6.7264,-6.7337,-6.737,-6.7423,-6.7505,-6.7568,-6.7577,-6.7636,-6.7684,-6.7667,-6.7701,-6.7696,-6.77,-6.751,-6.7484,-6.7714,-6.7714,-6.7713,-6.7713,-6.7713,-6.7713,-6.7149,-6.7258,-6.7255,-6.7376,-6.7394,-6.7475,-6.7503,-6.7538,-6.7565,-6.7659,-6.7713,-6.7718,-6.7741,-6.7802,-6.7858,-6.7858,-6.7882,-6.7923,-6.7916,-6.7739,-6.7714,-6.769,-6.7665,-6.7929,-6.7929,-6.8101,-6.8102,-6.8104]}]]